Flag for Australia Weather past 2 weeks in Canberra, Australian Capital Territory, Australia

Now
72 °F

Sunny.


Feels Like: 77 °F
Forecast: 52 / 69 °F
Wind: 12 mph from Southeast

Location: Canberra Airport

Current Time: Jan 28, 2015 at 3:21:31 PM

Latest Report: Jan 28, 2015 at 3:00 PM


Visibility: 10 mi

Pressure: 29.95 "Hg

Humidity: 44%

Dew point: 48 °F

Location of CanberraLocation

Historic Weather in Canberra — Graph

°F

Canberra temperature yesterday

Maximum temperature yesterday: 64 °F (at 12:30 PM)
Minimum temperature yesterday: 57 °F (at 12:00 AM)
Average temperature yesterday: 60 °F

Past Weeks' High & Low Weather Summary

 TemperatureHumidityPressure
High90 °F (Jan 23, 5:00 PM)100% (Jan 13, 8:00 PM)30.04 "Hg (Jan 13, 8:00 PM)
Low48 °F (Jan 18, 4:30 AM)24% (Jan 18, 3:00 PM)29.50 "Hg (Jan 14, 3:30 AM)
Average67 °F66%29.84 "Hg
* Reported Jan 13 1:00 PM — Jan 28 1:30 PM, Canberra, Weather by CustomWeather, © 2014

Note: Actual official high and low records may vary slightly from our data, if they occured in-between our weather recording intervals... More about our weather records

Advertising

Canberra weather history for previous 24 hours

 ConditionsComfort  
Time TempWeatherWind HumidityBarometerVisibility
1:30 PM
Jan 28
68 °FScattered clouds.8 mph49%29.98 "HgN/A
1:00 PM66 °FBroken clouds.8 mph49%29.98 "HgN/A
12:30 PM66 °FBroken clouds.10 mph49%29.98 "HgN/A
12:00 PM66 °FPartly sunny.9 mph52%29.98 "HgN/A
11:30 AM68 °FPartly sunny.10 mph53%30.01 "HgN/A
11:00 AM66 °FScattered clouds.8 mph56%30.01 "HgN/A
10:30 AM64 °FPartly sunny.9 mph56%30.01 "HgN/A
10:00 AM66 °FPartly sunny.12 mph56%30.01 "HgN/A
9:30 AM64 °FScattered clouds.13 mph56%30.01 "HgN/A
9:00 AM63 °FPartly sunny.13 mph64%30.01 "HgN/A
8:00 AM61 °FPartly sunny.10 mph68%29.98 "HgN/A
7:30 AM59 °FPartly sunny.8 mph72%29.98 "HgN/A
7:00 AM57 °FPartly sunny.5 mph77%29.98 "HgN/A
6:30 AM57 °FPartly sunny.7 mph77%29.98 "HgN/A
6:00 AM57 °FPassing clouds.9 mph77%29.95 "HgN/A
5:00 AM57 °FPassing clouds.8 mph77%29.95 "HgN/A
4:30 AM57 °FPartly cloudy.6 mph77%29.95 "HgN/A
4:00 AM57 °FMostly cloudy.7 mph77%29.95 "HgN/A
3:30 AM57 °FMostly cloudy.8 mph77%29.95 "HgN/A
3:00 AM57 °FOvercast.12 mph77%29.95 "HgN/A
2:30 AM57 °FOvercast.9 mph77%29.95 "HgN/A
2:00 AM57 °FMostly cloudy.9 mph77%29.95 "HgN/A
1:30 AM57 °FPassing clouds.8 mph77%29.98 "HgN/A
1:00 AM55 °FPassing clouds.6 mph82%29.98 "HgN/A
12:30 AM57 °FPassing clouds.8 mph77%29.98 "HgN/A
12:00 AM57 °FMostly cloudy.8 mph77%29.98 "HgN/A
11:00 PM
Jan 27
57 °FOvercast.8 mph77%30.01 "HgN/A
10:30 PM57 °FOvercast.10 mph77%29.98 "HgN/A
10:00 PM57 °FOvercast.10 mph77%29.98 "HgN/A
9:00 PM59 °FOvercast.12 mph77%29.98 "HgN/A
8:00 PM61 °FPartly sunny.10 mph72%29.95 "HgN/A
7:30 PM61 °FPartly sunny.9 mph72%29.95 "HgN/A
7:00 PM63 °FPartly sunny.12 mph68%29.95 "HgN/A
6:30 PM63 °FPartly sunny.13 mph68%29.92 "HgN/A
6:00 PM63 °FPartly sunny.10 mph68%29.92 "HgN/A
5:30 PM64 °FPartly sunny.12 mph68%29.92 "HgN/A
5:00 PM63 °FPartly sunny.10 mph68%29.92 "HgN/A
4:30 PM64 °FPartly sunny.12 mph68%29.92 "HgN/A
4:00 PM63 °FPartly sunny.13 mph68%29.95 "HgN/A
3:30 PM64 °FPartly sunny.12 mph68%29.95 "HgN/A
3:00 PM63 °FPartly sunny.9 mph68%29.95 "HgN/A
Weather by CustomWeather, © 2014

See weather overviewHow to use our weather pages